Time,TemperatureF,DewpointF,PressureIn,WindDirection,WindDirectionDegrees,WindSpeedMPH,WindSpeedGustMPH,Humidity,HourlyPrecipIn,Conditions,Clouds,dailyrainin,SoftwareType,DateUTC
2013-06-21 00:04:00,58.6,32.4,29.89,NW,315,0.0,0.0,37,0.00,,,0.00,Wunderground v.1.15,2013-06-21 07:04:00,
2013-06-21 00:10:00,57.9,33.1,29.89,NNW,345,0.0,0.0,39,0.00,,,0.00,Wunderground v.1.15,2013-06-21 07:10:00,
2013-06-21 00:15:00,57.5,33.3,29.90,NNW,346,0.0,0.0,40,0.00,,,0.00,Wunderground v.1.15,2013-06-21 07:15:00,
2013-06-21 00:21:00,57.2,33.1,29.89,NW,326,0.0,0.0,40,0.00,,,0.00,Wunderground v.1.15,2013-06-21 07:21:00,
2013-06-21 00:27:00,57.0,33.5,29.89,NNE,12,0.0,0.0,41,0.00,,,0.00,Wunderground v.1.15,2013-06-21 07:27:00,
2013-06-21 00:33:00,56.7,33.2,29.90,NNW,340,0.0,0.0,41,0.00,,,0.00,Wunderground v.1.15,2013-06-21 07:33:00,
2013-06-21 00:39:00,56.3,33.5,29.90,NNW,335,0.0,0.0,42,0.00,,,0.00,Wunderground v.1.15,2013-06-21 07:39:00,
2013-06-21 00:45:00,56.1,33.3,29.90,NNW,342,0.0,0.0,42,0.00,,,0.00,Wunderground v.1.15,2013-06-21 07:45:00,
2013-06-21 00:50:00,55.7,33.5,29.91,NNW,347,0.0,0.0,43,0.00,,,0.00,Wunderground v.1.15,2013-06-21 07:50:00,
2013-06-21 00:56:00,55.4,33.8,29.91,NW,326,0.0,0.0,44,0.00,,,0.00,Wunderground v.1.15,2013-06-21 07:56:00,
2013-06-21 01:02:00,55.3,33.7,29.91,NNW,339,0.0,0.0,44,0.00,,,0.00,Wunderground v.1.15,2013-06-21 08:02:00,
2013-06-21 01:08:00,54.9,33.4,29.91,North,352,0.0,0.0,44,0.00,,,0.00,Wunderground v.1.15,2013-06-21 08:08:00,
2013-06-21 01:14:00,54.5,33.6,29.92,NNW,333,0.0,0.0,45,0.00,,,0.00,Wunderground v.1.15,2013-06-21 08:14:00,
2013-06-21 01:20:00,54.3,33.9,29.92,NNW,337,0.0,0.0,46,0.00,,,0.00,Wunderground v.1.15,2013-06-21 08:20:00,
2013-06-21 01:25:00,54.2,33.9,29.92,NW,315,0.0,0.0,46,0.00,,,0.00,Wunderground v.1.15,2013-06-21 08:25:00,
2013-06-21 01:31:00,54.2,33.9,29.92,NW,321,0.0,0.0,46,0.00,,,0.00,Wunderground v.1.15,2013-06-21 08:31:00,
2013-06-21 01:37:00,54.0,33.7,29.92,NW,326,0.0,0.0,46,0.00,,,0.00,Wunderground v.1.15,2013-06-21 08:37:00,
2013-06-21 01:43:00,53.5,33.2,29.92,NNW,340,0.0,0.0,46,0.00,,,0.00,Wunderground v.1.15,2013-06-21 08:43:00,
2013-06-21 01:49:00,52.6,32.9,29.92,North,352,0.0,0.0,47,0.00,,,0.00,Wunderground v.1.15,2013-06-21 08:49:00,
2013-06-21 01:54:00,52.2,33.1,29.92,NW,313,0.0,0.0,48,0.00,,,0.00,Wunderground v.1.15,2013-06-21 08:54:00,
2013-06-21 02:00:00,51.9,33.3,29.92,WNW,291,0.0,0.0,49,0.00,,,0.00,Wunderground v.1.15,2013-06-21 09:00:00,
2013-06-21 02:06:00,51.7,33.1,29.92,WNW,292,0.0,0.0,49,0.00,,,0.00,Wunderground v.1.15,2013-06-21 09:06:00,
2013-06-21 02:12:00,51.7,33.1,29.92,WNW,293,0.0,0.0,49,0.00,,,0.00,Wunderground v.1.15,2013-06-21 09:12:00,
2013-06-21 02:18:00,51.5,33.5,29.92,WNW,293,0.0,0.0,50,0.00,,,0.00,Wunderground v.1.15,2013-06-21 09:18:00,
2013-06-21 02:23:00,51.4,33.4,29.92,WNW,293,0.0,0.0,50,0.00,,,0.00,Wunderground v.1.15,2013-06-21 09:23:00,
2013-06-21 02:29:00,51.3,33.3,29.92,WNW,288,0.0,1.0,50,0.00,,,0.00,Wunderground v.1.15,2013-06-21 09:29:00,
2013-06-21 02:35:00,51.4,33.4,29.92,NNE,17,0.0,0.0,50,0.00,,,0.00,Wunderground v.1.15,2013-06-21 09:35:00,
2013-06-21 02:40:00,51.3,33.3,29.92,NNW,338,0.0,0.0,50,0.00,,,0.00,Wunderground v.1.15,2013-06-21 09:40:00,
2013-06-21 02:46:00,51.0,33.5,29.92,North,352,0.0,0.0,51,0.00,,,0.00,Wunderground v.1.15,2013-06-21 09:46:00,
2013-06-21 02:52:00,50.8,33.3,29.92,NW,311,0.0,0.0,51,0.00,,,0.00,Wunderground v.1.15,2013-06-21 09:52:00,
2013-06-21 02:58:00,50.6,33.1,29.92,NNW,336,0.0,0.0,51,0.00,,,0.00,Wunderground v.1.15,2013-06-21 09:58:00,
2013-06-21 03:04:00,50.3,32.8,29.92,North,352,0.0,0.0,51,0.00,,,0.00,Wunderground v.1.15,2013-06-21 10:04:00,
2013-06-21 03:10:00,49.9,33.0,29.92,NW,325,0.0,0.0,52,0.00,,,0.00,Wunderground v.1.15,2013-06-21 10:10:00,
2013-06-21 03:15:00,50.1,33.1,29.92,NW,316,0.0,0.0,52,0.00,,,0.00,Wunderground v.1.15,2013-06-21 10:15:00,
2013-06-21 03:21:00,50.3,33.3,29.92,WNW,300,0.0,0.0,52,0.00,,,0.00,Wunderground v.1.15,2013-06-21 10:21:00,
2013-06-21 03:27:00,50.0,33.1,29.92,WNW,288,0.0,0.0,52,0.00,,,0.00,Wunderground v.1.15,2013-06-21 10:27:00,
2013-06-21 03:33:00,49.6,32.7,29.92,West,275,1.0,2.0,52,0.00,,,0.00,Wunderground v.1.15,2013-06-21 10:33:00,
2013-06-21 03:39:00,49.6,32.7,29.92,West,274,1.0,2.0,52,0.00,,,0.00,Wunderground v.1.15,2013-06-21 10:39:00,
2013-06-21 03:45:00,49.3,32.4,29.92,West,276,0.0,1.0,52,0.00,,,0.00,Wunderground v.1.15,2013-06-21 10:45:00,
2013-06-21 03:51:00,49.3,32.9,29.92,West,277,0.0,0.0,53,0.00,,,0.00,Wunderground v.1.15,2013-06-21 10:51:00,
2013-06-21 03:57:00,49.1,32.2,29.92,WNW,286,0.0,0.0,52,0.00,,,0.00,Wunderground v.1.15,2013-06-21 10:57:00,
2013-06-21 04:02:00,48.4,32.0,29.92,West,264,0.0,0.0,53,0.00,,,0.00,Wunderground v.1.15,2013-06-21 11:02:00,
2013-06-21 04:08:00,48.2,32.3,29.92,West,273,0.0,0.0,54,0.00,,,0.00,Wunderground v.1.15,2013-06-21 11:08:00,
2013-06-21 04:14:00,48.4,32.5,29.92,West,279,0.0,0.0,54,0.00,,,0.00,Wunderground v.1.15,2013-06-21 11:14:00,
2013-06-21 04:20:00,48.6,32.7,29.92,WNW,290,0.0,0.0,54,0.00,,,0.00,Wunderground v.1.15,2013-06-21 11:20:00,
2013-06-21 04:26:00,48.9,33.0,29.92,West,276,0.0,0.0,54,0.00,,,0.00,Wunderground v.1.15,2013-06-21 11:26:00,
2013-06-21 04:31:00,48.6,32.2,29.92,WSW,247,0.0,0.0,53,0.00,,,0.00,Wunderground v.1.15,2013-06-21 11:31:00,
2013-06-21 04:37:00,47.8,31.9,29.92,West,264,0.0,0.0,54,0.00,,,0.00,Wunderground v.1.15,2013-06-21 11:37:00,
2013-06-21 04:43:00,47.2,31.8,29.92,West,265,0.0,0.0,55,0.00,,,0.00,Wunderground v.1.15,2013-06-21 11:43:00,
2013-06-21 04:49:00,46.7,31.8,29.92,WSW,258,0.0,0.0,56,0.00,,,0.00,Wunderground v.1.15,2013-06-21 11:49:00,
2013-06-21 04:54:00,46.3,31.9,29.93,West,264,0.0,0.0,57,0.00,,,0.00,Wunderground v.1.15,2013-06-21 11:54:00,
2013-06-21 05:00:00,46.6,32.2,29.93,West,261,0.0,0.0,57,0.00,,,0.00,Wunderground v.1.15,2013-06-21 12:00:00,
2013-06-21 05:06:00,46.7,32.3,29.93,WSW,255,0.0,0.0,57,0.00,,,0.00,Wunderground v.1.15,2013-06-21 12:06:00,
2013-06-21 05:12:00,46.7,32.3,29.93,West,262,0.0,0.0,57,0.00,,,0.00,Wunderground v.1.15,2013-06-21 12:12:00,
2013-06-21 05:18:00,46.8,32.4,29.93,WSW,258,0.0,0.0,57,0.00,,,0.00,Wunderground v.1.15,2013-06-21 12:18:00,
2013-06-21 05:24:00,47.1,32.6,29.93,West,266,0.0,0.0,57,0.00,,,0.00,Wunderground v.1.15,2013-06-21 12:24:00,
2013-06-21 05:29:00,47.0,32.1,29.93,WSW,243,0.0,0.0,56,0.00,,,0.00,Wunderground v.1.15,2013-06-21 12:29:00,
2013-06-21 05:35:00,47.1,32.6,29.93,WSW,258,0.0,0.0,57,0.00,,,0.00,Wunderground v.1.15,2013-06-21 12:35:00,
2013-06-21 05:41:00,47.2,32.3,29.93,West,264,0.0,0.0,56,0.00,,,0.00,Wunderground v.1.15,2013-06-21 12:41:00,
2013-06-21 05:47:00,47.2,31.8,29.93,West,268,0.0,0.0,55,0.00,,,0.00,Wunderground v.1.15,2013-06-21 12:47:00,
2013-06-21 05:53:00,47.2,32.3,29.93,West,259,0.0,0.0,56,0.00,,,0.00,Wunderground v.1.15,2013-06-21 12:53:00,
2013-06-21 05:58:00,47.7,32.8,29.93,West,259,0.0,0.0,56,0.00,,,0.00,Wunderground v.1.15,2013-06-21 12:58:00,
2013-06-21 06:04:00,49.1,33.2,29.93,WSW,247,0.0,0.0,54,0.00,,,0.00,Wunderground v.1.15,2013-06-21 13:04:00,
2013-06-21 06:10:00,49.7,33.2,29.93,West,261,0.0,0.0,53,0.00,,,0.00,Wunderground v.1.15,2013-06-21 13:10:00,
2013-06-21 06:16:00,50.0,33.1,29.93,WSW,255,0.0,0.0,52,0.00,,,0.00,Wunderground v.1.15,2013-06-21 13:16:00,
2013-06-21 06:22:00,50.7,33.7,29.93,WSW,255,0.0,0.0,52,0.00,,,0.00,Wunderground v.1.15,2013-06-21 13:22:00,
2013-06-21 06:28:00,51.4,33.9,29.94,WSW,245,0.0,0.0,51,0.00,,,0.00,Wunderground v.1.15,2013-06-21 13:28:00,
2013-06-21 06:34:00,52.0,33.4,29.94,West,262,0.0,0.0,49,0.00,,,0.00,Wunderground v.1.15,2013-06-21 13:34:00,
2013-06-21 06:40:00,52.6,34.0,29.94,WSW,245,0.0,0.0,49,0.00,,,0.00,Wunderground v.1.15,2013-06-21 13:40:00,
2013-06-21 06:45:00,53.0,33.8,29.94,West,264,0.0,0.0,48,0.00,,,0.00,Wunderground v.1.15,2013-06-21 13:45:00,
2013-06-21 06:51:00,53.3,34.1,29.94,West,277,0.0,0.0,48,0.00,,,0.00,Wunderground v.1.15,2013-06-21 13:51:00,
2013-06-21 06:57:00,53.6,33.8,29.94,WSW,257,0.0,0.0,47,0.00,,,0.00,Wunderground v.1.15,2013-06-21 13:57:00,
2013-06-21 07:03:00,53.9,34.1,29.94,West,262,0.0,0.0,47,0.00,,,0.00,Wunderground v.1.15,2013-06-21 14:03:00,
2013-06-21 07:09:00,54.1,34.3,29.94,West,268,0.0,0.0,47,0.00,,,0.00,Wunderground v.1.15,2013-06-21 14:09:00,
2013-06-21 07:15:00,54.6,34.2,29.94,WNW,290,0.0,0.0,46,0.00,,,0.00,Wunderground v.1.15,2013-06-21 14:15:00,
2013-06-21 07:21:00,55.1,34.1,29.94,West,268,0.0,0.0,45,0.00,,,0.00,Wunderground v.1.15,2013-06-21 14:21:00,
2013-06-21 07:26:00,55.6,34.0,29.94,WSW,253,0.0,0.0,44,0.00,,,0.00,Wunderground v.1.15,2013-06-21 14:26:00,
2013-06-21 07:32:00,56.2,34.6,29.94,West,259,0.0,0.0,44,0.00,,,0.00,Wunderground v.1.15,2013-06-21 14:32:00,
2013-06-21 07:38:00,56.8,34.5,29.94,West,278,0.0,0.0,43,0.00,,,0.00,Wunderground v.1.15,2013-06-21 14:38:00,
2013-06-21 07:44:00,56.9,34.6,29.94,WNW,290,0.0,0.0,43,0.00,,,0.00,Wunderground v.1.15,2013-06-21 14:44:00,
2013-06-21 07:50:00,57.5,34.6,29.94,West,279,0.0,0.0,42,0.00,,,0.00,Wunderground v.1.15,2013-06-21 14:50:00,
2013-06-21 07:55:00,57.8,34.2,29.94,West,277,0.0,0.0,41,0.00,,,0.00,Wunderground v.1.15,2013-06-21 14:55:00,
2013-06-21 08:00:00,58.2,34.6,29.94,WNW,288,0.0,0.0,41,0.00,,,0.00,Wunderground v.1.15,2013-06-21 15:00:00,
2013-06-21 08:05:00,58.5,34.2,29.94,NW,307,0.0,0.0,40,0.00,,,0.00,Wunderground v.1.15,2013-06-21 15:05:00,
2013-06-21 08:12:00,58.8,34.5,29.93,West,270,0.0,0.0,40,0.00,,,0.00,Wunderground v.1.15,2013-06-21 15:12:00,
2013-06-21 08:17:00,59.1,34.1,29.93,West,261,0.0,0.0,39,0.00,,,0.00,Wunderground v.1.15,2013-06-21 15:17:00,
2013-06-21 08:23:00,59.7,34.0,29.93,WNW,287,0.0,0.0,38,0.00,,,0.00,Wunderground v.1.15,2013-06-21 15:23:00,
2013-06-21 08:28:00,60.0,32.9,29.93,NNW,343,0.0,0.0,36,0.00,,,0.00,Wunderground v.1.15,2013-06-21 15:28:00,
2013-06-21 08:34:00,60.0,33.6,29.93,NW,316,0.0,0.0,37,0.00,,,0.00,Wunderground v.1.15,2013-06-21 15:34:00,
2013-06-21 08:39:00,60.1,33.0,29.93,NE,52,0.0,0.0,36,0.00,,,0.00,Wunderground v.1.15,2013-06-21 15:39:00,
2013-06-21 08:44:00,60.0,32.9,29.93,WSW,257,0.0,0.0,36,0.00,,,0.00,Wunderground v.1.15,2013-06-21 15:44:00,
2013-06-21 08:50:00,61.0,33.1,29.93,WSW,241,0.0,0.0,35,0.00,,,0.00,Wunderground v.1.15,2013-06-21 15:50:00,
2013-06-21 08:56:00,61.2,32.6,29.93,West,274,0.0,0.0,34,0.00,,,0.00,Wunderground v.1.15,2013-06-21 15:56:00,
2013-06-21 09:02:00,61.4,32.0,29.93,NW,316,0.0,0.0,33,0.00,,,0.00,Wunderground v.1.15,2013-06-21 16:02:00,
2013-06-21 09:07:00,61.3,32.7,29.93,WNW,292,0.0,0.0,34,0.00,,,0.00,Wunderground v.1.15,2013-06-21 16:07:00,
2013-06-21 09:12:00,61.3,31.9,29.93,WNW,284,0.0,0.0,33,0.00,,,0.00,Wunderground v.1.15,2013-06-21 16:12:00,
2013-06-21 09:18:00,61.8,30.8,29.92,NNW,330,0.0,0.0,31,0.00,,,0.00,Wunderground v.1.15,2013-06-21 16:18:00,
2013-06-21 09:23:00,61.6,30.6,29.92,NW,315,0.0,0.0,31,0.00,,,0.00,Wunderground v.1.15,2013-06-21 16:23:00,
2013-06-21 09:29:00,62.0,31.0,29.92,North,4,0.0,0.0,31,0.00,,,0.00,Wunderground v.1.15,2013-06-21 16:29:00,
2013-06-21 09:35:00,62.1,31.1,29.92,WNW,288,0.0,0.0,31,0.00,,,0.00,Wunderground v.1.15,2013-06-21 16:35:00,
2013-06-21 09:40:00,62.6,30.7,29.92,NW,307,0.0,0.0,30,0.00,,,0.00,Wunderground v.1.15,2013-06-21 16:40:00,
2013-06-21 09:46:00,63.1,30.3,29.92,East,96,0.0,0.0,29,0.00,,,0.00,Wunderground v.1.15,2013-06-21 16:46:00,
2013-06-21 09:52:00,62.6,30.7,29.92,ENE,73,0.0,0.0,30,0.00,,,0.00,Wunderground v.1.15,2013-06-21 16:52:00,
2013-06-21 09:58:00,63.5,30.6,29.92,WNW,292,0.0,0.0,29,0.00,,,0.00,Wunderground v.1.15,2013-06-21 16:58:00,
2013-06-21 10:03:00,64.1,30.3,29.91,NW,319,0.0,0.0,28,0.00,,,0.00,Wunderground v.1.15,2013-06-21 17:03:00,
2013-06-21 10:09:00,63.8,30.9,29.91,SE,146,0.0,0.0,29,0.00,,,0.00,Wunderground v.1.15,2013-06-21 17:09:00,
2013-06-21 10:15:00,64.9,30.1,29.91,ENE,62,0.0,0.0,27,0.00,,,0.00,Wunderground v.1.15,2013-06-21 17:15:00,
2013-06-21 10:20:00,64.4,29.7,29.91,ESE,116,0.0,0.0,27,0.00,,,0.00,Wunderground v.1.15,2013-06-21 17:20:00,
2013-06-21 10:25:00,64.3,29.6,29.91,ENE,76,0.0,0.0,27,0.00,,,0.00,Wunderground v.1.15,2013-06-21 17:25:00,
2013-06-21 10:30:00,63.9,29.2,29.91,East,87,0.0,0.0,27,0.00,,,0.00,Wunderground v.1.15,2013-06-21 17:30:00,
2013-06-21 10:37:00,63.9,29.2,29.91,NE,49,0.0,0.0,27,0.00,,,0.00,Wunderground v.1.15,2013-06-21 17:37:00,
2013-06-21 10:43:00,63.6,29.9,29.91,NNE,24,0.0,0.0,28,0.00,,,0.00,Wunderground v.1.15,2013-06-21 17:43:00,
2013-06-21 10:46:00,63.6,29.9,29.91,ENE,59,0.0,0.0,28,0.00,,,0.00,Wunderground v.1.15,2013-06-21 17:46:00,
2013-06-21 10:47:00,63.7,30.0,29.91,ENE,59,0.0,0.0,28,0.00,,,0.00,Wunderground v.1.15,2013-06-21 17:47:00,
2013-06-21 10:49:00,64.2,30.4,29.91,NE,45,0.0,0.0,28,0.00,,,0.00,Wunderground v.1.15,2013-06-21 17:49:00,
2013-06-21 10:50:00,64.3,30.5,29.91,SSW,207,0.0,0.0,28,0.00,,,0.00,Wunderground v.1.15,2013-06-21 17:50:00,
2013-06-21 10:52:00,64.9,30.1,29.91,SW,217,0.0,0.0,27,0.00,,,0.00,Wunderground v.1.15,2013-06-21 17:52:00,
2013-06-21 10:57:00,65.0,29.2,29.91,WSW,248,0.0,0.0,26,0.00,,,0.00,Wunderground v.1.15,2013-06-21 17:57:00,
2013-06-21 11:03:00,64.8,30.0,29.90,North,8,0.0,0.0,27,0.00,,,0.00,Wunderground v.1.15,2013-06-21 18:03:00,
2013-06-21 11:08:00,65.1,29.3,29.90,North,1,0.0,0.0,26,0.00,,,0.00,Wunderground v.1.15,2013-06-21 18:08:00,
2013-06-21 11:14:00,65.2,30.3,29.90,North,356,0.0,0.0,27,0.00,,,0.00,Wunderground v.1.15,2013-06-21 18:14:00,
2013-06-21 11:20:00,65.1,29.3,29.90,West,274,0.0,0.0,26,0.00,,,0.00,Wunderground v.1.15,2013-06-21 18:20:00,
2013-06-21 11:23:00,65.4,29.6,29.90,WSW,245,0.0,0.0,26,0.00,,,0.00,Wunderground v.1.15,2013-06-21 18:23:00,
2013-06-21 11:24:00,65.5,29.7,29.90,NW,321,0.0,0.0,26,0.00,,,0.00,Wunderground v.1.15,2013-06-21 18:24:00,
2013-06-21 11:26:00,65.7,29.8,29.90,NE,55,0.0,0.0,26,0.00,,,0.00,Wunderground v.1.15,2013-06-21 18:26:00,
2013-06-21 11:27:00,65.8,29.9,29.90,NE,51,0.0,0.0,26,0.00,,,0.00,Wunderground v.1.15,2013-06-21 18:27:00,
2013-06-21 11:33:00,65.4,29.6,29.90,ENE,77,0.0,0.0,26,0.00,,,0.00,Wunderground v.1.15,2013-06-21 18:33:00,
2013-06-21 11:38:00,65.2,29.4,29.90,ENE,70,0.0,0.0,26,0.00,,,0.00,Wunderground v.1.15,2013-06-21 18:38:00,
2013-06-21 11:43:00,66.3,30.4,29.89,SSE,159,0.0,0.0,26,0.00,,,0.00,Wunderground v.1.15,2013-06-21 18:43:00,
2013-06-21 11:47:00,67.6,30.5,29.90,SE,131,0.0,0.0,25,0.00,,,0.00,Wunderground v.1.15,2013-06-21 18:47:00,
2013-06-21 11:51:00,68.0,29.8,29.89,South,186,0.0,0.0,24,0.00,,,0.00,Wunderground v.1.15,2013-06-21 18:51:00,
2013-06-21 11:53:00,68.3,30.1,29.89,SE,136,0.0,0.0,24,0.00,,,0.00,Wunderground v.1.15,2013-06-21 18:53:00,
2013-06-21 11:54:00,68.4,30.2,29.89,ESE,120,0.0,0.0,24,0.00,,,0.00,Wunderground v.1.15,2013-06-21 18:54:00,
2013-06-21 11:55:00,68.3,30.1,29.89,East,98,0.0,0.0,24,0.00,,,0.00,Wunderground v.1.15,2013-06-21 18:55:00,
2013-06-21 12:00:00,67.4,29.3,29.89,East,98,0.0,0.0,24,0.00,,,0.00,Wunderground v.1.15,2013-06-21 19:00:00,
2013-06-21 12:06:00,67.3,29.2,29.89,East,91,0.0,0.0,24,0.00,,,0.00,Wunderground v.1.15,2013-06-21 19:06:00,
2013-06-21 12:12:00,66.9,29.9,29.89,SSE,154,0.0,0.0,25,0.00,,,0.00,Wunderground v.1.15,2013-06-21 19:12:00,
2013-06-21 12:18:00,66.9,29.9,29.89,ESE,110,0.0,0.0,25,0.00,,,0.00,Wunderground v.1.15,2013-06-21 19:18:00,
2013-06-21 12:22:00,66.9,29.9,29.89,SE,141,0.0,0.0,25,0.00,,,0.00,Wunderground v.1.15,2013-06-21 19:22:00,
2013-06-21 12:27:00,67.0,30.0,29.89,NW,307,0.0,0.0,25,0.00,,,0.00,Wunderground v.1.15,2013-06-21 19:27:00,
2013-06-21 12:33:00,67.9,29.7,29.89,SSE,153,0.0,0.0,24,0.00,,,0.00,Wunderground v.1.15,2013-06-21 19:33:00,
2013-06-21 12:39:00,68.4,29.1,29.89,South,189,0.0,0.0,23,0.00,,,0.00,Wunderground v.1.15,2013-06-21 19:39:00,
2013-06-21 12:42:00,68.8,29.5,29.88,SSE,148,0.0,0.0,23,0.00,,,0.00,Wunderground v.1.15,2013-06-21 19:42:00,
2013-06-21 12:46:00,69.0,28.5,29.88,WSW,255,0.0,0.0,22,0.00,,,0.00,Wunderground v.1.15,2013-06-21 19:46:00,
2013-06-21 12:51:00,68.9,29.5,29.88,WSW,249,0.0,0.0,23,0.00,,,0.00,Wunderground v.1.15,2013-06-21 19:51:00,
2013-06-21 12:57:00,68.6,29.3,29.88,WNW,288,0.0,0.0,23,0.00,,,0.00,Wunderground v.1.15,2013-06-21 19:57:00,
2013-06-21 13:03:00,69.4,28.9,29.88,SSE,160,0.0,0.0,22,0.00,,,0.00,Wunderground v.1.15,2013-06-21 20:03:00,
2013-06-21 13:08:00,69.1,28.6,29.88,ENE,66,0.0,0.0,22,0.00,,,0.00,Wunderground v.1.15,2013-06-21 20:08:00,
2013-06-21 13:13:00,68.7,28.3,29.88,NNE,23,0.0,0.0,22,0.00,,,0.00,Wunderground v.1.15,2013-06-21 20:13:00,
2013-06-21 13:14:00,68.7,28.3,29.88,North,11,0.0,0.0,22,0.00,,,0.00,Wunderground v.1.15,2013-06-21 20:14:00,
2013-06-21 13:20:00,68.6,28.2,29.88,NNE,31,0.0,0.0,22,0.00,,,0.00,Wunderground v.1.15,2013-06-21 20:20:00,
2013-06-21 13:26:00,69.2,27.6,29.87,East,79,0.0,0.0,21,0.00,,,0.00,Wunderground v.1.15,2013-06-21 20:26:00,
2013-06-21 13:31:00,69.2,27.6,29.87,ENE,63,0.0,0.0,21,0.00,,,0.00,Wunderground v.1.15,2013-06-21 20:31:00,
2013-06-21 13:36:00,69.5,27.8,29.87,ENE,62,0.0,0.0,21,0.00,,,0.00,Wunderground v.1.15,2013-06-21 20:36:00,
2013-06-21 13:42:00,70.2,27.2,29.87,East,98,0.0,0.0,20,0.00,,,0.00,Wunderground v.1.15,2013-06-21 20:42:00,
2013-06-21 13:47:00,69.9,25.7,29.87,East,83,0.0,0.0,19,0.00,,,0.00,Wunderground v.1.15,2013-06-21 20:47:00,
2013-06-21 13:53:00,70.2,27.2,29.86,SE,134,0.0,0.0,20,0.00,,,0.00,Wunderground v.1.15,2013-06-21 20:53:00,
2013-06-21 13:58:00,70.9,26.5,29.86,ENE,69,0.0,0.0,19,0.00,,,0.00,Wunderground v.1.15,2013-06-21 20:58:00,
2013-06-21 14:04:00,70.3,24.8,29.86,ENE,66,0.0,0.0,18,0.00,,,0.00,Wunderground v.1.15,2013-06-21 21:04:00,
2013-06-21 14:10:00,71.0,25.3,29.86,NNE,23,0.0,0.0,18,0.00,,,0.00,Wunderground v.1.15,2013-06-21 21:10:00,
2013-06-21 14:16:00,71.3,24.2,29.86,NW,321,0.0,0.0,17,0.00,,,0.00,Wunderground v.1.15,2013-06-21 21:16:00,
2013-06-21 14:22:00,71.2,24.1,29.86,SW,236,0.0,0.0,17,0.00,,,0.00,Wunderground v.1.15,2013-06-21 21:22:00,
2013-06-21 14:28:00,71.0,24.0,29.85,WSW,252,0.0,0.0,17,0.00,,,0.00,Wunderground v.1.15,2013-06-21 21:28:00,
2013-06-21 14:34:00,71.2,22.7,29.85,West,275,0.0,0.0,16,0.00,,,0.00,Wunderground v.1.15,2013-06-21 21:34:00,
2013-06-21 14:40:00,71.9,23.2,29.85,NE,55,0.0,0.0,16,0.00,,,0.00,Wunderground v.1.15,2013-06-21 21:40:00,
2013-06-21 14:45:00,72.5,23.7,29.85,NNW,327,0.0,0.0,16,0.00,,,0.00,Wunderground v.1.15,2013-06-21 21:45:00,
2013-06-21 14:51:00,72.1,23.4,29.85,SE,136,0.0,0.0,16,0.00,,,0.00,Wunderground v.1.15,2013-06-21 21:51:00,
2013-06-21 14:57:00,72.7,23.9,29.84,SSE,157,0.0,0.0,16,0.00,,,0.00,Wunderground v.1.15,2013-06-21 21:57:00,
2013-06-21 14:58:00,73.1,24.2,29.84,SE,129,0.0,0.0,16,0.00,,,0.00,Wunderground v.1.15,2013-06-21 21:58:00,
2013-06-21 15:04:00,73.0,22.6,29.84,South,174,0.0,0.0,15,0.00,,,0.00,Wunderground v.1.15,2013-06-21 22:04:00,
2013-06-21 15:09:00,74.0,23.4,29.84,WSW,250,0.0,0.0,15,0.00,,,0.00,Wunderground v.1.15,2013-06-21 22:09:00,
2013-06-21 15:16:00,75.0,22.5,29.83,NE,39,0.0,0.0,14,0.00,,,0.00,Wunderground v.1.15,2013-06-21 22:16:00,
2013-06-21 15:22:00,73.5,23.0,29.84,NNE,12,0.0,0.0,15,0.00,,,0.00,Wunderground v.1.15,2013-06-21 22:22:00,
2013-06-21 15:27:00,73.1,22.7,29.83,North,352,0.0,0.0,15,0.00,,,0.00,Wunderground v.1.15,2013-06-21 22:27:00,
2013-06-21 15:33:00,73.7,23.1,29.83,NNE,15,0.0,0.0,15,0.00,,,0.00,Wunderground v.1.15,2013-06-21 22:33:00,
2013-06-21 15:38:00,74.1,23.5,29.83,NNE,23,0.0,0.0,15,0.00,,,0.00,Wunderground v.1.15,2013-06-21 22:38:00,
2013-06-21 15:44:00,74.0,23.4,29.83,ENE,59,0.0,0.0,15,0.00,,,0.00,Wunderground v.1.15,2013-06-21 22:44:00,
2013-06-21 15:50:00,74.1,23.5,29.82,NE,38,0.0,0.0,15,0.00,,,0.00,Wunderground v.1.15,2013-06-21 22:50:00,
2013-06-21 15:55:00,73.9,23.3,29.82,NE,49,0.0,0.0,15,0.00,,,0.00,Wunderground v.1.15,2013-06-21 22:55:00,
2013-06-21 16:00:00,73.8,23.2,29.82,NE,38,0.0,0.0,15,0.00,,,0.00,Wunderground v.1.15,2013-06-21 23:00:00,
2013-06-21 16:06:00,73.5,23.0,29.82,ENE,76,0.0,0.0,15,0.00,,,0.00,Wunderground v.1.15,2013-06-21 23:06:00,
2013-06-21 16:11:00,73.6,23.1,29.81,East,87,0.0,0.0,15,0.00,,,0.00,Wunderground v.1.15,2013-06-21 23:11:00,
2013-06-21 16:17:00,74.0,23.4,29.81,ESE,121,0.0,0.0,15,0.00,,,0.00,Wunderground v.1.15,2013-06-21 23:17:00,
2013-06-21 16:23:00,74.5,23.8,29.81,NNW,330,0.0,0.0,15,0.00,,,0.00,Wunderground v.1.15,2013-06-21 23:23:00,
2013-06-21 16:29:00,75.4,22.8,29.81,NNW,339,0.0,0.0,14,0.00,,,0.00,Wunderground v.1.15,2013-06-21 23:29:00,
2013-06-21 16:35:00,75.1,22.6,29.81,NNW,340,0.0,0.0,14,0.00,,,0.00,Wunderground v.1.15,2013-06-21 23:35:00,
2013-06-21 16:40:00,75.4,22.8,29.80,NNW,333,0.0,0.0,14,0.00,,,0.00,Wunderground v.1.15,2013-06-21 23:40:00,
2013-06-21 16:46:00,75.5,22.9,29.80,NE,46,0.0,0.0,14,0.00,,,0.00,Wunderground v.1.15,2013-06-21 23:46:00,
2013-06-21 16:51:00,74.8,22.4,29.80,NE,49,0.0,0.0,14,0.00,,,0.00,Wunderground v.1.15,2013-06-21 23:51:00,
2013-06-21 16:57:00,74.8,22.4,29.80,South,184,0.0,0.0,14,0.00,,,0.00,Wunderground v.1.15,2013-06-21 23:57:00,
2013-06-21 17:03:00,75.6,21.2,29.80,NNW,327,0.0,0.0,13,0.00,,,0.00,Wunderground v.1.15,2013-06-22 00:03:00,
2013-06-21 17:09:00,75.7,23.1,29.79,WNW,301,0.0,0.0,14,0.00,,,0.00,Wunderground v.1.15,2013-06-22 00:09:00,
2013-06-21 17:15:00,76.1,23.4,29.79,NNW,339,0.0,0.0,14,0.00,,,0.00,Wunderground v.1.15,2013-06-22 00:15:00,
2013-06-21 17:21:00,76.0,21.6,29.79,North,350,0.0,0.0,13,0.00,,,0.00,Wunderground v.1.15,2013-06-22 00:21:00,
2013-06-21 17:26:00,76.1,21.6,29.79,North,352,0.0,0.0,13,0.00,,,0.00,Wunderground v.1.15,2013-06-22 00:26:00,
2013-06-21 17:32:00,75.6,21.2,29.79,NW,315,0.0,0.0,13,0.00,,,0.00,Wunderground v.1.15,2013-06-22 00:32:00,
2013-06-21 17:38:00,75.8,21.4,29.78,NNE,23,0.0,0.0,13,0.00,,,0.00,Wunderground v.1.15,2013-06-22 00:38:00,
2013-06-21 17:44:00,75.6,21.2,29.78,East,100,0.0,0.0,13,0.00,,,0.00,Wunderground v.1.15,2013-06-22 00:44:00,
2013-06-21 17:50:00,75.6,21.2,29.78,NW,307,0.0,0.0,13,0.00,,,0.00,Wunderground v.1.15,2013-06-22 00:50:00,
2013-06-21 17:55:00,75.8,21.4,29.78,NW,309,0.0,0.0,13,0.00,,,0.00,Wunderground v.1.15,2013-06-22 00:55:00,
2013-06-21 18:00:00,76.2,21.7,29.78,North,353,0.0,0.0,13,0.00,,,0.00,Wunderground v.1.15,2013-06-22 01:00:00,
2013-06-21 18:05:00,75.9,21.5,29.78,North,3,0.0,0.0,13,0.00,,,0.00,Wunderground v.1.15,2013-06-22 01:05:00,
2013-06-21 18:11:00,75.9,21.5,29.78,North,4,0.0,0.0,13,0.00,,,0.00,Wunderground v.1.15,2013-06-22 01:11:00,
2013-06-21 18:17:00,76.2,21.7,29.78,NNW,333,0.0,0.0,13,0.00,,,0.00,Wunderground v.1.15,2013-06-22 01:17:00,
2013-06-21 18:23:00,76.3,23.6,29.78,NW,315,0.0,0.0,14,0.00,,,0.00,Wunderground v.1.15,2013-06-22 01:23:00,
2013-06-21 18:29:00,76.0,23.3,29.78,WNW,302,0.0,0.0,14,0.00,,,0.00,Wunderground v.1.15,2013-06-22 01:29:00,
2013-06-21 18:35:00,76.2,23.5,29.78,NW,305,0.0,0.0,14,0.00,,,0.00,Wunderground v.1.15,2013-06-22 01:35:00,
2013-06-21 18:40:00,75.9,23.2,29.78,NNW,328,0.0,0.0,14,0.00,,,0.00,Wunderground v.1.15,2013-06-22 01:40:00,
2013-06-21 18:46:00,75.7,23.1,29.78,WNW,295,0.0,0.0,14,0.00,,,0.00,Wunderground v.1.15,2013-06-22 01:46:00,
2013-06-21 18:52:00,75.9,23.2,29.78,West,271,0.0,0.0,14,0.00,,,0.00,Wunderground v.1.15,2013-06-22 01:52:00,
2013-06-21 18:57:00,75.9,23.2,29.78,North,356,0.0,0.0,14,0.00,,,0.00,Wunderground v.1.15,2013-06-22 01:57:00,
2013-06-21 19:03:00,75.6,23.0,29.78,NNW,328,0.0,0.0,14,0.00,,,0.00,Wunderground v.1.15,2013-06-22 02:03:00,
2013-06-21 19:09:00,75.6,23.0,29.79,WNW,302,0.0,0.0,14,0.00,,,0.00,Wunderground v.1.15,2013-06-22 02:09:00,
2013-06-21 19:15:00,75.5,21.2,29.79,NW,322,0.0,0.0,13,0.00,,,0.00,Wunderground v.1.15,2013-06-22 02:15:00,
2013-06-21 19:20:00,75.0,20.8,29.79,NW,309,0.0,0.0,13,0.00,,,0.00,Wunderground v.1.15,2013-06-22 02:20:00,
2013-06-21 19:26:00,74.9,20.7,29.79,NW,315,0.0,0.0,13,0.00,,,0.00,Wunderground v.1.15,2013-06-22 02:26:00,
2013-06-21 19:32:00,74.9,20.7,29.79,WNW,288,0.0,0.0,13,0.00,,,0.00,Wunderground v.1.15,2013-06-22 02:32:00,
2013-06-21 19:38:00,74.9,20.7,29.79,NW,321,0.0,0.0,13,0.00,,,0.00,Wunderground v.1.15,2013-06-22 02:38:00,
2013-06-21 19:44:00,74.6,20.5,29.79,NW,307,0.0,0.0,13,0.00,,,0.00,Wunderground v.1.15,2013-06-22 02:44:00,
2013-06-21 19:50:00,74.0,20.0,29.80,NW,305,0.0,0.0,13,0.00,,,0.00,Wunderground v.1.15,2013-06-22 02:50:00,
2013-06-21 19:55:00,73.7,21.5,29.80,NW,311,0.0,0.0,14,0.00,,,0.00,Wunderground v.1.15,2013-06-22 02:55:00,
2013-06-21 20:00:00,73.4,21.3,29.80,WNW,301,0.0,0.0,14,0.00,,,0.00,Wunderground v.1.15,2013-06-22 03:00:00,
2013-06-21 20:06:00,73.1,22.7,29.80,NW,311,0.0,0.0,15,0.00,,,0.00,Wunderground v.1.15,2013-06-22 03:06:00,
2013-06-21 20:11:00,72.8,22.4,29.80,NW,316,0.0,0.0,15,0.00,,,0.00,Wunderground v.1.15,2013-06-22 03:11:00,
2013-06-21 20:17:00,72.5,23.7,29.80,NNW,329,0.0,0.0,16,0.00,,,0.00,Wunderground v.1.15,2013-06-22 03:17:00,
2013-06-21 20:23:00,72.2,23.5,29.80,WNW,295,0.0,0.0,16,0.00,,,0.00,Wunderground v.1.15,2013-06-22 03:23:00,
2013-06-21 20:29:00,71.8,23.2,29.80,NW,312,0.0,0.0,16,0.00,,,0.00,Wunderground v.1.15,2013-06-22 03:29:00,
2013-06-21 20:35:00,71.3,22.7,29.80,NW,304,0.0,0.0,16,0.00,,,0.00,Wunderground v.1.15,2013-06-22 03:35:00,
2013-06-21 20:41:00,70.9,22.4,29.80,NW,316,0.0,0.0,16,0.00,,,0.00,Wunderground v.1.15,2013-06-22 03:41:00,
2013-06-21 20:46:00,70.6,22.2,29.81,NW,312,0.0,0.0,16,0.00,,,0.00,Wunderground v.1.15,2013-06-22 03:46:00,
2013-06-21 20:52:00,70.3,20.4,29.81,NW,311,0.0,0.0,15,0.00,,,0.00,Wunderground v.1.15,2013-06-22 03:52:00,
2013-06-21 20:58:00,69.9,21.6,29.81,NW,305,0.0,0.0,16,0.00,,,0.00,Wunderground v.1.15,2013-06-22 03:58:00,
2013-06-21 21:01:00,69.6,21.4,29.81,NW,305,0.0,0.0,16,0.00,,,0.00,Wunderground v.1.15,2013-06-22 04:01:00,
2013-06-21 21:02:00,69.5,21.3,29.81,NW,304,0.0,0.0,16,0.00,,,0.00,Wunderground v.1.15,2013-06-22 04:02:00,
2013-06-21 21:03:00,69.4,21.2,29.81,NW,306,0.0,0.0,16,0.00,,,0.00,Wunderground v.1.15,2013-06-22 04:03:00,
2013-06-21 21:04:00,69.3,21.1,29.81,NW,304,0.0,0.0,16,0.00,,,0.00,Wunderground v.1.15,2013-06-22 04:04:00,
2013-06-21 21:07:00,69.1,21.0,29.81,NW,304,0.0,0.0,16,0.00,,,0.00,Wunderground v.1.15,2013-06-22 04:07:00,
2013-06-21 21:13:00,68.9,19.3,29.82,NW,316,0.0,0.0,15,0.00,,,0.00,Wunderground v.1.15,2013-06-22 04:13:00,
2013-06-21 21:19:00,68.6,19.1,29.82,NW,311,0.0,0.0,15,0.00,,,0.00,Wunderground v.1.15,2013-06-22 04:19:00,
2013-06-21 21:25:00,68.5,19.0,29.82,WNW,299,0.0,0.0,15,0.00,,,0.00,Wunderground v.1.15,2013-06-22 04:25:00,
2013-06-21 21:31:00,68.1,18.7,29.82,WNW,298,0.0,0.0,15,0.00,,,0.00,Wunderground v.1.15,2013-06-22 04:31:00,
2013-06-21 21:37:00,67.9,18.5,29.83,WNW,282,0.0,0.0,15,0.00,,,0.00,Wunderground v.1.15,2013-06-22 04:37:00,
2013-06-21 21:43:00,67.1,17.8,29.83,West,273,0.0,0.0,15,0.00,,,0.00,Wunderground v.1.15,2013-06-22 04:43:00,
2013-06-21 21:49:00,65.9,18.4,29.83,West,262,0.0,0.0,16,0.00,,,0.00,Wunderground v.1.15,2013-06-22 04:49:00,
2013-06-21 21:54:00,65.8,18.3,29.83,West,266,0.0,0.0,16,0.00,,,0.00,Wunderground v.1.15,2013-06-22 04:54:00,
2013-06-21 22:00:00,65.6,18.1,29.83,West,265,0.0,0.0,16,0.00,,,0.00,Wunderground v.1.15,2013-06-22 05:00:00,
2013-06-21 22:06:00,65.6,18.1,29.83,West,279,0.0,0.0,16,0.00,,,0.00,Wunderground v.1.15,2013-06-22 05:06:00,
2013-06-21 22:12:00,65.4,19.4,29.84,West,262,0.0,0.0,17,0.00,,,0.00,Wunderground v.1.15,2013-06-22 05:12:00,
2013-06-21 22:18:00,64.9,19.0,29.84,West,271,0.0,0.0,17,0.00,,,0.00,Wunderground v.1.15,2013-06-22 05:18:00,
2013-06-21 22:24:00,64.8,20.2,29.84,West,262,0.0,0.0,18,0.00,,,0.00,Wunderground v.1.15,2013-06-22 05:24:00,
2013-06-21 22:29:00,64.4,19.9,29.84,West,262,0.0,0.0,18,0.00,,,0.00,Wunderground v.1.15,2013-06-22 05:29:00,
2013-06-21 22:35:00,64.3,19.8,29.84,WSW,255,0.0,0.0,18,0.00,,,0.00,Wunderground v.1.15,2013-06-22 05:35:00,
2013-06-21 22:41:00,63.5,19.2,29.85,West,269,0.0,0.0,18,0.00,,,0.00,Wunderground v.1.15,2013-06-22 05:41:00,
2013-06-21 22:47:00,63.2,20.2,29.85,West,280,0.0,0.0,19,0.00,,,0.00,Wunderground v.1.15,2013-06-22 05:47:00,
2013-06-21 22:52:00,63.8,20.7,29.85,West,280,0.0,0.0,19,0.00,,,0.00,Wunderground v.1.15,2013-06-22 05:52:00,
2013-06-21 22:58:00,63.8,20.7,29.85,NW,312,0.0,0.0,19,0.00,,,0.00,Wunderground v.1.15,2013-06-22 05:58:00,
2013-06-21 23:04:00,63.4,21.6,29.85,NW,310,0.0,0.0,20,0.00,,,0.00,Wunderground v.1.15,2013-06-22 06:04:00,
2013-06-21 23:10:00,63.1,21.3,29.85,WNW,300,0.0,0.0,20,0.00,,,0.00,Wunderground v.1.15,2013-06-22 06:10:00,
2013-06-21 23:16:00,62.9,21.2,29.86,WNW,291,0.0,0.0,20,0.00,,,0.00,Wunderground v.1.15,2013-06-22 06:16:00,
2013-06-21 23:21:00,62.8,21.1,29.86,West,281,0.0,0.0,20,0.00,,,0.00,Wunderground v.1.15,2013-06-22 06:21:00,
2013-06-21 23:27:00,62.9,20.0,29.86,WNW,291,0.0,0.0,19,0.00,,,0.00,Wunderground v.1.15,2013-06-22 06:27:00,
2013-06-21 23:32:00,63.0,20.0,29.86,WNW,290,0.0,0.0,19,0.00,,,0.00,Wunderground v.1.15,2013-06-22 06:32:00,
2013-06-21 23:38:00,62.8,19.9,29.86,West,271,0.0,0.0,19,0.00,,,0.00,Wunderground v.1.15,2013-06-22 06:38:00,
2013-06-21 23:44:00,61.3,19.8,29.86,West,260,0.0,0.0,20,0.00,,,0.00,Wunderground v.1.15,2013-06-22 06:44:00,
2013-06-21 23:50:00,60.6,20.4,29.86,West,262,0.0,0.0,21,0.00,,,0.00,Wunderground v.1.15,2013-06-22 06:50:00,
2013-06-21 23:55:00,60.6,21.5,29.87,West,259,0.0,0.0,22,0.00,,,0.00,Wunderground v.1.15,2013-06-22 06:55:00,